User: anonymous   Login
Location: Bangkok
(13.7500°N, 100.5170°E)
Time: 07:08:46
(UTC+07:00)
Language:

Cosmos 1898 Rocket - Orbit

View from above orbital plane
View from above orbital plane
View from above satellite
View from above satellite

Ground track
Ground track

The orbit data is extracted from the following two-line orbital elements,

1 18586U 87098B   14356.03740237  .00000638  00000-0  22579-3 0  2016
2 18586 074.0058 167.3500 0020018 077.2392 056.7390 14.36530190416943
Epoch (UTC): 22 December 2014 00:53:51
Eccentricity: 0.0020018
inclination: 74.0058°
perigee height: 755 km
apogee height: 784 km
right ascension of ascending node: 167.3500°
argument of perigee: 77.2392°
revolutions per day: 14.36530190
mean anomaly at epoch: 56.7390°
orbit number at epoch: 41694

The dashed part of the orbit path shows where the satellite is in the earth's shadow,  

DLR